AirNav   Air Wisconsin pilot careers
 
 1199 users online  

F09 Olustee Municipal Airport
Olustee, Oklahoma, USA

GOING TO OLUSTEE?


FAA INFORMATION EFFECTIVE 20 JUNE 2019

Location

FAA Identifier: F09
Lat/Long: 34-30-45.2670N / 099-25-46.3200W
34-30.754450N / 099-25.772000W
34.5125742 / -99.4295333
(estimated)
Elevation: 1346 ft. / 410 m (estimated)
Variation: 08E (1985)
From city: 3 miles S of OLUSTEE, OK
Time zone: UTC -5 (UTC -6 during Standard Time)
Zip code: 73560

Airport Operations

Airport use: Open to the public
Activation date: 11/1948
Control tower: no
ARTCC: FORT WORTH CENTER
FSS: MC ALESTER FLIGHT SERVICE STATION
NOTAMs facility: MLC (NOTAM-D service available)
Attendance: UNATNDD
Wind indicator: yes
Segmented circle: no

Airport Communications

CTAF: 122.9
WX AWOS-3PT at AXS (12 nm N): 118.825 (580-477-1745)
WX AWOS-3 at F05 (19 nm SE): 118.525 (940-552-8600)

Nearby radio navigation aids

VOR radial/distance  VOR name  Freq  Var
LTSr216/11.9ALTUS VORTAC109.8005E
HBRr210/27.9HOBART VORTAC111.8010E

Airport Services

Airframe service: NONE
Powerplant service: NONE
Bottled oxygen: NONE
Bulk oxygen: NONE

Runway Information

Runway 17/35

Dimensions: 2000 x 50 ft. / 610 x 15 m
Surface: asphalt, in poor condition
RWY 17/35 HAS SEVERE CRACKING & GRASS GROWING THROUGH CRACKS.
Weight bearing capacity: 
Single wheel: 12.0
Runway edge markings: NUMBERS SVRLY FADED.
RUNWAY 17  RUNWAY 35
Latitude: 34-31.197667N34-30.867947N
Longitude: 099-26.030333W099-26.030333W
Elevation: 1346.0 ft.1346.0 ft.
Traffic pattern: leftleft
Runway heading: 172 magnetic, 180 true352 magnetic, 000 true
Markings: numbers only, in poor conditionnumbers only, in poor condition

Airport Ownership and Management from official FAA records

Ownership: Publicly-owned
Owner: CITY OF OLUSTEE
PO BOX 330
OLUSTEE, OK 73560
Phone 580-648-2288
Manager: KIM KELLER
PO BOX 330
OLUSTEE, OK 73560
Phone 580-450-0462
CITY CLERK.

Airport Operational Statistics

Aircraft based on the field: 3
Single engine airplanes: 2
Ultralights: 1
    
Aircraft operations: avg 21/week *
91% local general aviation
9% transient general aviation
* for 12-month period ending 30 November 2018

Additional Remarks

FOR CD CTC FORT WORTH ARTCC AT 817-858-7584.

Instrument Procedures

There are no published instrument procedures at F09.

Some nearby airports with instrument procedures:

KAXS - Altus/Quartz Mountain Regional Airport (12 nm N)
KLTS - Altus Air Force Base (12 nm NE)
F05 - Wilbarger County Airport (19 nm SE)
2K4 - Scott Field Airport (23 nm N)
KFDR - Frederick Regional Airport (24 nm SE)
 
Loc | Ops | Rwys | IFR | FBO | Links
Com | Nav | Svcs | Stats | Notes

AirBoss

 
Area around F09 (Olustee Municipal Airport)
 
Road maps at: MapQuest Bing Google
 
Aerial photo
No photo
 
Sectional chart

 
Airport distance calculator
Flying to Olustee Municipal Airport? Find the distance to fly.

From to F09

Sunrise and sunset
Times for 15-Jul-2019
 Local
(UTC-5)
 Zulu
(UTC)
Morning civil twilight06:0911:09
Sunrise06:3711:37
Sunset20:5001:50
Evening civil twilight21:1902:19

Current date and time
Zulu (UTC)  15-Jul-2019 23:36:50
Local (UTC-5)  15-Jul-2019 18:36:50
 
METAR
KAXS 
12nm NE 
152315Z AUTO 00000KT 7SM CLR 36/17 A2988 RMK AO2 T03550165
KLTS 
12nm NE 
152256Z 00000KT 10SM SCT080 36/16 A2987 RMK AO2A SLP097 T03590161 $
KF05 
19nm SE 
152315Z AUTO 09005KT 10SM CLR 37/18 A2987 RMK AO1 T03690180
TAF
KLTS 
12nm NE 
151700Z 1517/1623 VRB06KT 9999 FEW070 QNH2981INS BECMG 1614/1615 19010G15KT 9999 FEW140 QNH2979INS TX37/1521Z TN26/1612Z
NOTAMs
Click for the latest NOTAMs
NOTAMs are issued by the DoD/FAA and will open in a separate window not controlled by AirNav.

 

 
 

Would you like to see your business listed on this page?

 If your business provides an interesting product or service to pilots, flight crews, aircraft, or users of the Olustee Municipal Airport, you should consider listing it here.  To start the listing process, click on the button below
 
Add a business
 

Other Pages about Olustee Municipal Airport

Update a link
 
Copyright © AirNav, LLC. All rights reserved. Privacy Policy  Contact